Regional Weather Roundup
Issued by NWS Northern Indiana

Home | Current Version | Previous Version | Graphics & Text | Print | Product List | Glossary On
Versions: 1 2 3 4 5 6 7 8 9 10 11 12 13 14 15 16 17 18 19 20 21 22 23 24 25 26 27 28 29 30 31 32 33 34 35 36 37 38 39 40 41 42 43 44 45 46 47 48 49 50
000
ASUS43 KIWX 262310
RWRIWX

KIWX WEATHER ROUNDUP
NATIONAL WEATHER SERVICE NORTHERN INDIANA
600 PM EST WED NOV 26 2014

NOTE: "FAIR" INDICATES FEW OR NO CLOUDS BELOW 12,000 FEET WITH NO
SIGNIFICANT WEATHER AND/OR OBSTRUCTIONS TO VISIBILITY.

* THESE STATIONS ARE NOT UNDER NWS QUALITY CONTROL. THEY ALSO MAY NOT
  REPORT WEATHER SUCH AS PRECIPITATION OR FOG.

INZ001>027-270000-
NORTHERN INDIANA

CITY           SKY/WX    TMP DP  RH WIND       PRES   REMARKS
VALPARAISO     CLOUDY    26  19  74 NE6       30.11F WCI  19
MICHIGAN CITY* CLOUDY    28  19  69 NE3       30.13R
LAPORTE*       CLOUDY    29  22  75 E5        30.11S WCI  24
KNOX*          CLOUDY    28  20  73 NE5       30.10S WCI  22
SOUTH BEND     CLOUDY    28  20  71 N5        30.11S WCI  23
ELKHART*       CLOUDY    28  18  64 CALM      30.11F
GOSHEN         CLOUDY    28  20  71 NE5       30.09F WCI  23
MONTICELLO*    CLOUDY    28  21  76 E5        30.08F WCI  23
LOGANSPORT*    CLOUDY    28  21  74 E3        30.09F
ROCHESTER*     CLOUDY    30  23  74 E3        30.10S
WARSAW*        CLOUDY    28  21  74 CALM      30.09S
ANGOLA*        CLOUDY    27  18  69 CALM      30.07F
FORT WAYNE     CLOUDY    28  20  71 CALM      30.09F
HUNTINGTON*    CLOUDY    28  21  77 N3        30.08S
PERU/GRISSOM   CLOUDY    27  24  88 NE7       30.08S WCI  20
MARION*          N/A     28  21  75 NE7       30.08S WCI  20

$$
INZ028>050-270000-
CENTRAL INDIANA

CITY           SKY/WX    TMP DP  RH WIND       PRES   REMARKS
LAFAYETTE      MOCLDY    27  21  78 NE8       30.08S WCI  19
KOKOMO*        CLOUDY    28  21  74 NE8       30.08S WCI  20
MUNCIE*        CLOUDY    29  21  72 NE3       30.07R
INDIANAPOLIS   CLOUDY    31  23  72 NE6       30.04S WCI  25

$$
MIZ043>046-050>051-056>058-064>065-071>073-077>080-270000-
SOUTHWEST LOWER MICHIGAN

CITY           SKY/WX    TMP DP  RH WIND       PRES   REMARKS
BATTLE CREEK   CLOUDY    29  22  75 N3        30.10S
BENTON HARBOR  CLOUDY    27  20  75 CALM      30.12F
COLDWATER*     CLOUDY    30  24  79 N5        30.08F WCI  25
HILLSDALE*     CLOUDY    29  24  82 CALM      30.06F
HOLLAND        CLOUDY    30  21  69 E3        30.13S
GRAND RAPIDS   CLOUDY    29  20  69 NE7       30.12S WCI  22
KALAMAZOO      CLOUDY    28  20  71 CALM      30.11S
STURGIS*       CLOUDY    27  21  80 CALM      30.08F
THREE RIVERS*  CLOUDY    29  22  72 CALM      30.11S

$$
OHZ001>008-015>018-024>025-270000-
NORTHWEST OHIO

CITY           SKY/WX    TMP DP  RH WIND       PRES   REMARKS
WAUSEON*       CLOUDY    30  25  80 N5        30.08F WCI  25
DEFIANCE       CLOUDY    31  24  75 N6        30.09F WCI  25
FINDLAY        CLOUDY    33  26  75 N9        30.06F WCI  25
TOLEDO EXPRESS CLOUDY    31  24  75 N7        30.08F WCI  24
TOLEDO METCALF CLOUDY    33  25  72 N6        30.09F WCI  28
LIMA           CLOUDY    32  24  72 N6        30.06S WCI  26

$$
AND FOR LAKE MICHIGAN COASTAL AND OPEN LAKE BUOY OBSERVATIONS

STATION/POSITION TEMP    WIND        PRES    VSBY  WAVE
                 AIR SEA DIR/SP/G                  HT/PER
                 (F)     (DEG/KT/KT) (MB)    (MI)  (FT/S)
CALUMET HARBOR    28      CALM  /  3 1018.8S
MICHIGAN CITY     27      70/  5/  6   N/A
SAINT JOSEPH      28      CALM  /  1 1021.0R
SOUTH LAKE BUOY   32 42  100/  4/  6 1021.0F         1/ 3
MICHIGAN CITY CG     37                N/A    3 1/2  1

$$
&&



USA.gov is the U.S. government's official web portal to all federal, state and local government web resources and services.